Wind_Speed
5 10 6 2 6 8 8 8 11 9 9 10 13 10 10 7 4 5 4 4 5 7 18 19 20 21 24 25 26 29 35 37 38 33 32 32 31 36 34 33 33 32 31 28
7 5 3 5 8 9 11 12 14 11 12 11 13 15 15 8 7 5 4 4 3 5 7 18 24 29 32 27 23 22 22 24 26 27 31 34 29 20 24 26 34 29 29 28
6 5 2 3 4 7 11 12 12 11 11 15 17 18 21 12 8 5 3 3 4 5 7 14 22 29 23 22 22 22 21 19 20 22 27 29 31 31 30 30 38 34 38 32
2 2 3 4 4 8 12 4 10 13 15 19 7 18 13 16 10 7 6 5 6 7 9 11 13 21 20 21 24 25 23 23 26 26 28 31 32 33 30 32 33 36 39 41
4 3 3 5 6 10 11 12 12 12 14 16 18 17 4 11 11 12 10 10 10 10 12 14 14 14 16 20 18 25 34 35 31 32 33 36 38 39 38 39 41 39 45 47
5 4 3 5 9 7 8 11 13 14 12 16 18 7 9 12 9 10 12 16 15 14 15 18 18 19 20 22 24 25 36 35 37 37 38 39 40 42 42 43 44 45 48 46
7 7 5 3 10 7 7 9 12 9 11 8 1 7 13 2 3 7 13 15 16 18 21 20 23 26 28 29 28 31 32 41 40 39 38 38 40 43 44 44 44 45 46 45
13 7 5 4 6 7 8 6 7 6 7 17 17 13 6 4 12 13 10 12 16 22 24 28 31 30 30 29 30 32 32 34 38 43 43 44 45 45 44 45 47 47 48 48
9 2 1 9 5 2 2 4 5 9 14 15 11 6 7 2 5 10 15 17 23 20 24 27 29 29 30 30 32 31 34 33 35 39 44 46 45 45 47 48 51 52 52 53
6 12 7 7 4 5 3 4 6 5 4 9 13 16 8 7 12 17 18 25 26 29 30 30 32 31 31 31 32 33 32 34 38 43 39 40 44 46 49 51 52 54 57 57
7 8 6 5 7 5 5 5 5 7 9 7 8 10 10 10 16 21 25 28 31 36 28 34 35 33 31 32 34 36 35 36 38 42 44 44 44 48 49 52 54 57 58 58
8 6 12 9 6 8 7 8 8 6 8 13 18 18 7 15 18 22 26 26 24 31 35 33 33 33 34 37 36 36 37 39 39 41 44 47 48 47 48 49 48 47 46 44
4 5 7 11 9 5 6 8 10 11 11 13 15 15 12 25 26 26 26 30 34 29 32 35 35 36 36 36 37 42 49 54 51 51 51 47 45 43 39 37 37 38 39 39
12 9 12 15 14 9 10 12 12 13 14 18 22 27 27 28 27 26 29 29 31 32 35 34 33 37 36 39 49 55 58 46 39 37 37 36 35 35 35 35 35 35 36 36
10 12 12 16 16 15 16 17 16 18 20 21 26 27 26 25 25 28 30 31 31 34 31 33 39 37 40 47 51 47 35 32 33 37 39 40 38 36 36 35 33 34 33 33
9 11 10 16 16 16 18 19 19 18 18 20 22 25 22 24 25 28 29 30 34 29 36 39 37 46 44 48 39 34 37 39 42 41 39 36 36 36 37 33 32 33 30 33
11 9 10 17 10 12 17 12 11 14 14 16 21 23 23 24 24 27 30 31 28 36 38 38 47 53 49 35 34 40 42 44 43 38 34 30 29 27 25 28 29 28 28 28
13 11 12 18 15 14 7 13 18 18 13 15 19 21 21 21 26 27 29 26 35 37 36 43 51 49 34 33 41 45 44 40 34 32 27 26 27 23 24 23 25 27 27 25
14 12 14 14 15 17 21 15 12 12 20 21 13 15 20 24 27 26 27 33 35 36 40 48 47 37 32 39 44 40 35 32 30 25 23 21 25 21 21 23 23 18 21 23
12 14 14 14 13 9 8 19 24 20 15 6 11 20 22 25 30 33 33 34 35 37 46 43 44 29 35 41 41 32 29 30 22 23 24 24 20 24 23 15 14 16 12 8
10 12 18 17 18 18 13 21 24 6 10 18 20 20 22 25 28 34 34 35 35 40 45 43 27 29 36 41 34 31 31 28 26 21 19 19 19 11 10 11 8 2 6 7
13 10 11 13 17 17 18 20 17 17 24 19 21 21 23 26 29 31 34 35 38 42 42 26 25 27 36 34 29 29 30 24 21 22 15 12 12 12 5 1 6 7 2 4
13 17 12 11 7 16 23 26 20 21 22 22 19 20 24 27 29 32 34 35 39 41 31 22 25 26 33 36 26 28 26 22 17 15 14 12 10 8 6 11 12 4 7 2
15 15 17 12 11 13 17 15 16 16 18 20 19 20 24 27 29 31 31 36 39 35 25 26 27 27 31 37 24 23 22 20 18 14 12 14 11 8 13 12 10 7 5 6
13 14 14 17 17 17 16 16 17 18 21 18 17 21 22 26 28 29 31 40 37 29 26 26 29 27 30 33 21 17 18 17 13 13 15 17 14 13 8 10 5 8 8 6
18 21 18 18 12 13 10 15 17 19 19 18 21 23 24 24 27 29 39 40 34 28 26 27 28 28 30 25 17 12 11 13 10 11 16 14 14 8 12 11 11 11 8 7
Wind_Direction
250 237 257 248 270 298 297 275 273 261 262 263 260 258 252 261 268 270 283 312 335 346 303 293 295 299 306 300 289 279 272 269 262 260 259 264 265 265 267 265 264 265 263 259
251 230 264 278 273 276 272 270 268 257 260 265 269 257 250 251 246 236 267 290 321 332 347 309 307 315 312 302 300 298 293 286 273 254 249 252 251 250 253 260 271 266 260 257
357 167 178 253 286 286 271 271 287 275 273 273 270 267 237 237 223 238 244 260 306 314 320 308 307 312 298 299 301 302 305 302 286 269 264 262 256 257 262 267 270 275 268 270
186 212 202 259 276 316 294 299 277 284 278 276 228 282 221 219 226 236 265 273 285 305 317 321 313 297 296 298 306 301 297 291 281 271 268 266 266 264 262 259 256 256 270 281
169 207 255 268 283 318 292 303 283 276 272 275 267 241 107 205 234 254 265 273 290 299 305 310 312 315 309 307 308 299 297 296 284 279 273 270 271 273 271 269 275 274 275 281
220 234 244 263 308 303 299 304 285 268 261 254 243 237 261 218 237 271 271 279 281 295 305 305 308 309 308 302 304 300 296 292 289 288 288 283 278 275 274 277 279 279 277 276
215 229 252 284 327 272 317 314 299 233 207 255 133 265 290 296 247 278 277 273 285 293 306 300 302 302 302 302 299 295 298 298 294 292 287 285 287 288 286 281 279 276 278 278
282 208 207 289 323 284 296 305 288 305 323 315 308 250 179 215 278 288 285 280 298 298 290 297 303 302 300 300 299 298 299 299 299 296 292 290 290 288 285 286 287 285 285 283
310 251 192 281 296 306 304 282 296 292 282 266 284 308 218 248 288 300 296 288 301 297 301 304 303 302 300 300 301 301 301 303 298 292 290 290 289 286 284 283 282 281 283 284
267 279 249 270 265 270 284 261 268 227 291 312 327 302 68 315 310 305 299 299 296 299 298 302 304 302 305 299 302 301 297 296 295 296 293 289 285 284 282 283 284 284 282 281
243 258 242 273 239 261 247 233 269 291 297 304 307 325 340 319 308 303 305 300 293 297 307 309 304 301 301 303 302 300 298 296 294 291 288 288 285 284 286 285 283 281 281 281
241 244 258 255 253 264 247 257 259 272 280 281 302 304 312 318 316 311 312 306 311 322 310 310 309 309 307 306 304 301 299 296 292 286 280 278 290 290 287 285 283 282 281 280
244 249 272 254 247 246 250 255 262 266 277 276 293 285 304 313 310 309 306 304 307 312 311 309 308 309 308 304 304 296 288 287 286 282 285 288 289 288 285 286 285 285 284 282
253 245 247 260 313 295 271 267 269 266 268 276 279 298 306 308 308 309 313 312 311 312 313 311 310 311 308 303 294 297 299 299 296 296 297 298 293 288 288 291 290 291 288 282
251 257 261 267 272 276 274 274 274 271 273 276 289 296 307 307 306 312 315 316 315 314 313 312 312 310 302 300 301 305 305 307 304 301 299 297 293 290 287 290 289 295 287 285
254 259 274 274 279 275 276 275 275 272 275 279 290 295 303 301 307 312 316 316 314 319 314 314 306 306 313 308 312 312 310 311 311 305 303 298 294 290 282 283 286 287 293 286
237 262 269 283 276 281 285 282 256 275 272 284 290 297 305 305 309 314 318 315 319 318 317 311 309 316 312 316 317 318 314 311 309 306 304 301 302 299 291 285 288 295 291 286
243 251 262 270 288 277 258 275 284 289 279 289 294 296 301 308 309 314 316 316 321 320 316 309 316 320 320 320 319 315 312 310 310 311 308 304 302 296 295 295 286 294 293 297
237 237 257 263 277 285 282 273 278 297 305 304 303 300 312 308 311 316 316 320 319 319 310 312 317 320 320 326 323 322 322 318 314 310 310 307 308 302 295 294 296 298 301 296
230 230 234 260 270 277 296 274 288 312 313 281 314 312 313 316 314 318 319 322 318 315 311 319 321 320 322 323 326 334 334 329 328 320 320 311 314 299 300 293 298 310 305 325
234 232 238 251 258 265 265 270 292 278 298 292 309 313 310 312 311 314 320 318 320 308 321 319 323 330 337 332 332 333 330 325 325 322 321 314 310 325 315 307 302 324 8 10
239 237 249 254 264 274 259 269 287 296 303 311 312 312 311 312 316 318 317 320 315 321 324 328 331 340 343 342 338 341 343 338 338 330 334 331 331 339 344 87 328 336 255 346
244 240 253 241 243 273 273 278 284 298 302 307 306 308 317 316 316 317 319 321 320 325 331 326 331 339 346 345 344 348 351 350 353 360 349 347 18 36 319 288 339 2 313 3
253 253 251 255 273 275 264 277 288 299 303 304 310 320 310 315 316 319 327 320 329 334 331 328 332 330 341 341 343 351 351 353 355 3 360 19 21 350 345 7 27 22 81 70
243 246 260 266 274 270 275 275 281 299 311 314 311 310 315 317 320 326 325 334 336 335 333 333 335 333 339 341 344 351 1 14 11 15 16 22 12 19 16 31 24 30 77 115
254 253 251 264 264 254 263 275 295 307 316 314 315 318 321 322 328 330 335 339 338 336 334 335 336 334 337 338 340 346 356 359 17 12 13 20 23 37 31 12 68 87 64 44
Height
3201 3200 3197 3195 3197 3197 3196 3196 3196 3196 3196 3199 3197 3197 3197 3196 3196 3196 3195 3193 3190 3185 3181 3180 3178 3177 3174 3172 3170 3167 3165 3164 3165 3165 3165 3163 3165 3161 3162 3161 3160 3160 3160 3159
3201 3198 3198 3199 3199 3198 3197 3196 3194 3194 3195 3197 3194 3194 3193 3193 3193 3192 3192 3190 3189 3187 3181 3177 3175 3173 3170 3167 3164 3162 3160 3158 3158 3157 3155 3156 3155 3156 3155 3153 3151 3152 3152 3152
3198 3198 3199 3200 3199 3198 3195 3195 3193 3194 3193 3192 3192 3189 3187 3190 3189 3188 3187 3187 3186 3183 3181 3177 3172 3170 3167 3163 3161 3157 3156 3154 3153 3153 3151 3151 3150 3150 3149 3147 3144 3145 3140 3144
3200 3200 3200 3200 3199 3199 3195 3193 3194 3193 3192 3188 3186 3184 3183 3184 3187 3186 3186 3186 3184 3181 3179 3175 3172 3168 3165 3161 3157 3154 3152 3151 3149 3148 3146 3144 3143 3141 3141 3139 3138 3134 3133 3134
3199 3200 3200 3199 3199 3197 3195 3192 3191 3191 3189 3188 3183 3183 3182 3182 3184 3184 3184 3183 3181 3179 3176 3173 3170 3165 3162 3158 3155 3150 3146 3144 3142 3141 3139 3137 3135 3132 3130 3128 3128 3125 3125 3124
3198 3199 3199 3198 3197 3195 3193 3192 3189 3187 3185 3181 3175 3176 3177 3176 3180 3183 3182 3180 3178 3175 3173 3170 3167 3163 3160 3155 3150 3144 3140 3137 3135 3131 3128 3126 3125 3123 3122 3120 3119 3117 3115 3114
3196 3196 3196 3196 3196 3194 3193 3191 3183 3179 3174 3172 3175 3179 3178 3176 3178 3179 3179 3178 3175 3172 3169 3167 3163 3159 3155 3150 3145 3139 3133 3128 3125 3122 3119 3117 3113 3110 3108 3108 3107 3104 3102 3102
3193 3191 3195 3194 3196 3194 3193 3192 3188 3183 3175 3172 3173 3170 3173 3174 3173 3173 3172 3172 3171 3169 3164 3161 3157 3152 3148 3142 3136 3131 3126 3119 3115 3111 3108 3105 3102 3100 3097 3095 3091 3089 3088 3087
3193 3191 3191 3191 3193 3193 3191 3190 3190 3188 3184 3176 3167 3168 3170 3171 3173 3172 3170 3169 3165 3160 3157 3152 3149 3144 3138 3133 3129 3123 3118 3113 3107 3102 3097 3094 3091 3088 3085 3083 3079 3078 3075 3073
3194 3193 3191 3190 3190 3190 3190 3189 3188 3185 3184 3176 3165 3168 3167 3172 3172 3171 3169 3166 3162 3156 3152 3147 3141 3135 3130 3125 3120 3116 3110 3106 3100 3094 3089 3083 3079 3075 3071 3069 3067 3064 3061 3060
3192 3193 3191 3190 3188 3187 3187 3186 3187 3187 3185 3178 3172 3168 3170 3170 3170 3167 3164 3160 3151 3147 3143 3140 3134 3128 3123 3117 3112 3107 3101 3096 3091 3085 3078 3072 3066 3062 3059 3055 3052 3048 3046 3043
3189 3189 3187 3186 3185 3184 3185 3184 3185 3185 3183 3178 3175 3171 3167 3167 3165 3161 3156 3149 3144 3139 3138 3132 3126 3120 3114 3109 3103 3097 3090 3084 3080 3073 3066 3057 3052 3049 3045 3041 3037 3034 3031 3030
3187 3187 3186 3182 3184 3181 3182 3182 3182 3182 3181 3178 3175 3170 3165 3164 3161 3158 3153 3148 3142 3136 3131 3125 3119 3113 3107 3100 3091 3083 3075 3068 3063 3058 3051 3044 3039 3035 3032 3028 3026 3023 3020 3019
3184 3185 3184 3182 3178 3180 3180 3179 3178 3178 3177 3174 3170 3164 3163 3160 3156 3151 3146 3141 3136 3130 3124 3118 3111 3105 3099 3089 3078 3070 3060 3052 3047 3042 3036 3032 3028 3025 3022 3019 3016 3014 3010 3007
3181 3181 3181 3179 3178 3177 3176 3175 3174 3173 3171 3169 3165 3162 3159 3156 3150 3145 3140 3134 3129 3123 3117 3110 3103 3095 3085 3076 3067 3057 3049 3044 3039 3033 3027 3023 3020 3016 3013 3010 3007 3004 3000 2998
3178 3177 3177 3175 3174 3173 3171 3169 3168 3167 3166 3164 3161 3158 3156 3150 3145 3140 3135 3129 3122 3115 3109 3102 3092 3083 3074 3063 3054 3047 3041 3035 3029 3022 3017 3012 3008 3005 3002 3001 2999 2996 2992 2990
3177 3176 3175 3171 3170 3169 3167 3162 3163 3163 3162 3161 3157 3154 3149 3144 3140 3135 3129 3123 3115 3109 3101 3092 3082 3071 3061 3053 3046 3038 3031 3025 3018 3012 3007 3003 2999 2995 2993 2992 2989 2987 2983 2980
3173 3173 3173 3170 3169 3165 3159 3158 3158 3156 3156 3155 3151 3148 3144 3139 3135 3130 3125 3115 3109 3102 3093 3082 3072 3061 3053 3046 3038 3030 3023 3016 3009 3004 2999 2996 2992 2989 2987 2984 2982 2979 2975 2972
3167 3169 3169 3168 3164 3161 3159 3154 3153 3152 3151 3146 3144 3142 3138 3134 3129 3125 3119 3112 3104 3095 3085 3074 3063 3054 3047 3040 3031 3022 3014 3007 3001 2997 2993 2990 2987 2982 2981 2978 2975 2973 2969 2966
3165 3163 3167 3165 3162 3160 3156 3151 3150 3149 3146 3142 3140 3137 3133 3128 3121 3117 3111 3105 3097 3088 3077 3064 3055 3049 3042 3033 3024 3016 3009 3003 2997 2993 2989 2985 2981 2977 2974 2972 2971 2969 2965 2963
3162 3161 3160 3159 3157 3156 3152 3147 3147 3149 3149 3139 3136 3132 3129 3124 3120 3111 3104 3097 3090 3078 3067 3057 3050 3044 3036 3027 3018 3012 3005 2999 2993 2989 2984 2981 2977 2973 2971 2970 2968 2965 2965 2963
3159 3159 3156 3156 3154 3153 3146 3144 3146 3143 3137 3134 3131 3127 3123 3118 3112 3106 3098 3090 3080 3069 3058 3051 3046 3041 3033 3023 3016 3010 3002 2996 2990 2986 2982 2979 2976 2973 2971 2969 2967 2966 2964 2963
3155 3155 3153 3153 3151 3146 3143 3141 3139 3136 3132 3129 3125 3121 3117 3112 3106 3099 3090 3082 3073 3062 3053 3048 3042 3037 3031 3022 3015 3008 3002 2995 2990 2986 2983 2980 2977 2975 2972 2970 2967 2966 2963 2962
3148 3148 3145 3147 3145 3142 3140 3137 3135 3132 3128 3124 3120 3116 3112 3106 3099 3091 3085 3076 3064 3056 3049 3044 3039 3033 3027 3020 3014 3009 3003 2997 2992 2988 2985 2982 2979 2977 2973 2970 2968 2966 2965 2964
3146 3142 3141 3140 3139 3139 3137 3135 3131 3127 3123 3119 3116 3111 3106 3100 3092 3086 3079 3068 3059 3052 3046 3041 3035 3029 3024 3018 3014 3009 3004 2999 2995 2992 2988 2985 2981 2978 2975 2972 2970 2968 2967 2964
3139 3137 3137 3135 3135 3133 3132 3129 3126 3122 3119 3115 3110 3104 3099 3093 3087 3081 3071 3062 3055 3048 3043 3038 3033 3027 3022 3016 3013 3009 3005 3001 2998 2994 2991 2987 2984 2981 2978 2975 2973 2973 2970 2969